Location: Cheching
(60.0667°N, 164.2167°W)
Time: 11:29:45
(UTC+00:00)

UNISAT 6 - Pass Details

Date: 22 January 2021
Orbit: 607 x 687 km, 97.7° (Epoch: 24 February)

Event Time Altitude Azimuth Distance (km) Brightness Sun altitude
Rises 17:16:21 0° 161° (SSE) 2,871 ? -15.9°
Reaches altitude 10° 17:18:31 10° 161° (SSE) 1,977 ? -15.6°
Maximum altitude 17:22:49 88° 70° (ENE) 632 ? -15.1°
Drops below altitude 10° 17:27:14 10° 344° (NNW) 2,029 ? -14.5°
Enters shadow 17:28:47 - 344° (NNW) 2,671 ? -14.4°
